Location: Unspecified
(35.0061°N, 0.0000°E)
Time: 03:11:55
(UTC+00:00)

Vanguard 1 Rocket - All Passes

Search period start: 04 April 2026 00:00
Search period end: 14 April 2026 00:00
Orbit: 654 x 4213 km, 34.3° (Epoch: 28 March)

Date Brightness Start Highest point End Pass type
(mag) Time Alt. Az. Time Alt. Az. Time Alt. Az.
4 Apr - 00:55:30 10° WSW 01:17:15 69° SSE 01:28:32 10° E visible
4 Apr - 03:29:37 10° W 03:45:21 87° S 03:53:03 10° E visible
4 Apr - 06:01:56 10° W 06:11:13 54° SSW 06:16:32 10° SE daylight
4 Apr - 21:12:39 10° S 21:32:05 28° SE 21:47:13 10° E visible
4 Apr - 23:39:06 10° SW 00:02:31 58° SSE 00:16:03 10° E visible
5 Apr - 02:12:21 10° WSW 02:31:45 84° S 02:41:14 10° E visible
5 Apr - 04:46:16 10° W 04:58:52 76° SSW 05:05:17 10° ESE visible
5 Apr - 07:17:35 10° W 07:23:11 23° SW 07:27:13 10° SSE daylight
5 Apr - 20:02:36 10° S 20:16:49 18° SE 20:29:29 10° ESE visible
5 Apr - 22:23:55 10° SSW 22:47:18 46° SSE 23:02:53 10° E visible
6 Apr - 00:54:58 10° WSW 01:17:28 76° SSE 01:29:10 10° E visible
6 Apr - 03:29:38 10° W 03:45:51 86° S 03:53:43 10° E visible
6 Apr - 06:02:13 10° W 06:11:31 45° SSW 06:16:55 10° SE daylight
6 Apr - 21:10:18 10° SSW 21:31:52 35° SE 21:48:34 10° E visible
6 Apr - 23:38:12 10° SW 00:02:34 66° SSE 00:16:41 10° E visible
7 Apr - 02:12:13 10° W 02:32:07 87° S 02:41:53 10° E visible
7 Apr - 04:46:22 10° W 04:59:17 68° SSW 05:05:52 10° ESE visible
7 Apr - 07:18:37 10° W 07:23:14 17° SW 07:26:45 10° S daylight
7 Apr - 19:58:52 10° S 20:16:31 24° SE 20:32:11 10° E visible
7 Apr - 22:22:35 10° SW 22:47:10 54° SSE 23:03:35 10° E visible
8 Apr - 00:54:36 10° WSW 01:17:42 82° SSE 01:29:46 10° E visible
8 Apr - 03:29:39 10° W 03:46:17 83° S 03:54:23 10° ESE visible
8 Apr - 06:02:33 10° W 06:11:43 36° SW 06:17:09 10° SSE daylight
8 Apr - 18:52:20 10° SSE 19:01:27 13° SE 19:10:24 10° ESE visible
8 Apr - 21:08:29 10° SSW 21:31:33 42° SE 21:49:32 10° E visible
8 Apr - 23:37:31 10° WSW 00:02:37 73° SSE 00:17:15 10° E visible
9 Apr - 02:12:08 10° W 02:32:31 88° S 02:42:33 10° E visible
9 Apr - 04:46:27 10° WNW 04:59:36 60° SSW 05:06:22 10° SE visible
9 Apr - 07:20:23 10° WSW 07:23:10 12° SW 07:25:32 10° SSW daylight
9 Apr - 19:56:13 10° S 20:16:05 30° SE 20:33:54 10° E visible
9 Apr - 22:21:34 10° SW 22:47:00 61° SSE 23:04:10 10° ENE visible
10 Apr - 00:54:21 10° WSW 01:17:57 85° S 01:30:22 10° E visible
10 Apr - 03:29:37 10° W 03:46:41 78° SSW 03:55:00 10° ESE visible
10 Apr - 06:02:59 10° W 06:11:44 29° SW 06:17:09 10° SSE daylight
10 Apr - 18:46:53 10° SSE 19:01:01 18° SE 19:15:02 10° E visible
10 Apr - 21:07:04 10° SSW 21:31:10 49° SE 21:50:15 10° E visible
10 Apr - 23:37:03 10° WSW 00:02:40 78° SSE 00:17:47 10° E visible
11 Apr - 02:12:03 10° W 02:32:53 87° S 02:43:12 10° E visible
11 Apr - 04:46:31 10° WNW 04:59:48 51° SSW 05:06:44 10° SE visible
11 Apr - 19:54:14 10° SSW 20:15:32 36° SE 20:35:03 10° E visible
11 Apr - 22:20:49 10° SW 22:46:48 68° SSE 23:04:40 10° ENE visible
12 Apr - 00:54:11 10° W 01:18:13 87° S 01:30:59 10° E visible
12 Apr - 03:29:34 10° W 03:46:59 72° SSW 03:55:33 10° ESE visible
12 Apr - 06:03:38 10° W 06:11:38 23° SW 06:16:54 10° S daylight
12 Apr - 18:43:35 10° S 19:00:24 24° SE 19:17:32 10° E visible
12 Apr - 21:06:00 10° SW 21:30:44 56° SSE 21:50:48 10° ENE visible
12 Apr - 23:36:44 10° WSW 00:02:44 83° SSE 00:18:19 10° E visible
13 Apr - 02:11:58 10° W 02:33:13 84° S 02:43:48 10° ESE visible
13 Apr - 04:46:38 10° WNW 04:59:50 43° SW 05:06:58 10° SSE visible
13 Apr - 17:38:20 10° SE 17:45:51 12° SE 17:53:42 10° ESE daylight
13 Apr - 19:52:44 10° SSW 20:14:54 43° SE 20:35:50 10° E visible
13 Apr - 22:20:18 10° WSW 22:46:38 74° SSE 23:05:07 10° E visible
